Year,Month,Day,Hour,Minute,Value (Times are PST for temperature in C)
2015,02,20,00,00,6.60
2015,02,20,00,01,6.60
2015,02,20,00,02,6.60
2015,02,20,00,03,6.50
2015,02,20,00,04,6.50
2015,02,20,00,05,6.50
2015,02,20,00,06,6.50
2015,02,20,00,07,6.40
2015,02,20,00,08,6.40
2015,02,20,00,09,6.40
2015,02,20,00,10,6.40
2015,02,20,00,11,6.40
2015,02,20,00,12,6.40
2015,02,20,00,13,6.40
2015,02,20,00,14,6.40
2015,02,20,00,15,6.40
2015,02,20,00,16,6.40
2015,02,20,00,17,6.40
2015,02,20,00,18,6.40
2015,02,20,00,19,6.30
2015,02,20,00,20,6.30
2015,02,20,00,21,6.30
2015,02,20,00,22,6.30
2015,02,20,00,23,6.20
2015,02,20,00,24,6.20
2015,02,20,00,25,6.20
2015,02,20,00,26,6.20
2015,02,20,00,27,6.20
2015,02,20,00,28,6.20
2015,02,20,00,29,6.20
2015,02,20,00,30,6.10
2015,02,20,00,31,6.10
2015,02,20,00,32,6.10
2015,02,20,00,33,6.10
2015,02,20,00,34,6.10
2015,02,20,00,35,6.10
2015,02,20,00,36,6.10
2015,02,20,00,37,6.20
2015,02,20,00,38,6.20
2015,02,20,00,39,6.20
2015,02,20,00,40,6.20
2015,02,20,00,41,6.20
2015,02,20,00,42,6.20
2015,02,20,00,43,6.20
2015,02,20,00,44,6.30
2015,02,20,00,45,6.30
2015,02,20,00,46,6.30
2015,02,20,00,47,6.30
2015,02,20,00,48,6.30
2015,02,20,00,49,6.30
2015,02,20,00,50,6.30
2015,02,20,00,51,6.30
2015,02,20,00,52,6.30
2015,02,20,00,53,6.30
2015,02,20,00,54,6.20
2015,02,20,00,55,6.20
2015,02,20,00,56,6.20
2015,02,20,00,57,6.10
2015,02,20,00,58,6.10
2015,02,20,00,59,6.10
2015,02,20,01,00,6.10
2015,02,20,01,01,6.00
2015,02,20,01,02,6.00
2015,02,20,01,03,6.00
2015,02,20,01,04,6.00
2015,02,20,01,05,5.90
2015,02,20,01,06,5.90
2015,02,20,01,07,5.90
2015,02,20,01,08,5.80
2015,02,20,01,09,5.80
2015,02,20,01,10,5.80
2015,02,20,01,11,5.80
2015,02,20,01,12,5.80
2015,02,20,01,13,5.80
2015,02,20,01,14,5.80
2015,02,20,01,15,5.80
2015,02,20,01,16,5.80
2015,02,20,01,17,5.80
2015,02,20,01,18,5.80
2015,02,20,01,19,5.80
2015,02,20,01,20,5.80
2015,02,20,01,21,5.80
2015,02,20,01,22,5.80
2015,02,20,01,23,5.80
2015,02,20,01,24,5.80
2015,02,20,01,25,5.80
2015,02,20,01,26,5.80
2015,02,20,01,27,5.80
2015,02,20,01,28,5.70
2015,02,20,01,29,5.70
2015,02,20,01,30,5.60
2015,02,20,01,31,5.60
2015,02,20,01,32,5.60
2015,02,20,01,33,5.60
2015,02,20,01,34,5.50
2015,02,20,01,35,5.50
2015,02,20,01,36,5.50
2015,02,20,01,37,5.50
2015,02,20,01,38,5.50
2015,02,20,01,39,5.40
2015,02,20,01,40,5.40
2015,02,20,01,41,5.40
2015,02,20,01,42,5.40
2015,02,20,01,43,5.40
2015,02,20,01,44,5.30
2015,02,20,01,45,5.30
2015,02,20,01,46,5.30
2015,02,20,01,47,5.20
2015,02,20,01,48,5.20
2015,02,20,01,49,5.10
2015,02,20,01,50,5.00
2015,02,20,01,51,5.00
2015,02,20,01,52,4.90
2015,02,20,01,53,4.90
2015,02,20,01,54,4.90
2015,02,20,01,55,4.80
2015,02,20,01,56,4.80
2015,02,20,01,57,4.80
2015,02,20,01,58,4.80
2015,02,20,01,59,4.80
2015,02,20,02,00,4.80
2015,02,20,02,01,4.90
2015,02,20,02,02,4.90
2015,02,20,02,03,4.90
2015,02,20,02,04,4.90
2015,02,20,02,05,5.00
2015,02,20,02,06,5.00
2015,02,20,02,07,5.00
2015,02,20,02,08,5.00
2015,02,20,02,09,5.10
2015,02,20,02,10,5.10
2015,02,20,02,11,5.10
2015,02,20,02,12,5.10
2015,02,20,02,13,5.10
2015,02,20,02,14,5.10
2015,02,20,02,15,5.10
2015,02,20,02,16,5.10
2015,02,20,02,17,5.20
2015,02,20,02,18,5.20
2015,02,20,02,19,5.20
2015,02,20,02,20,5.30
2015,02,20,02,21,5.30
2015,02,20,02,22,5.30
2015,02,20,02,23,5.40
2015,02,20,02,24,5.40
2015,02,20,02,25,5.40
2015,02,20,02,26,5.50
2015,02,20,02,27,5.50
2015,02,20,02,28,5.60
2015,02,20,02,29,5.60
2015,02,20,02,30,5.60
2015,02,20,02,31,5.50
2015,02,20,02,32,5.50
2015,02,20,02,33,5.40
2015,02,20,02,34,5.40
2015,02,20,02,35,5.40
2015,02,20,02,36,5.40
2015,02,20,02,37,5.50
2015,02,20,02,38,5.60
2015,02,20,02,39,5.70
2015,02,20,02,40,5.80
2015,02,20,02,41,5.90
2015,02,20,02,42,6.00
2015,02,20,02,43,6.10
2015,02,20,02,44,6.10
2015,02,20,02,45,6.20
2015,02,20,02,46,6.30
2015,02,20,02,47,6.30
2015,02,20,02,48,6.40
2015,02,20,02,49,6.50
2015,02,20,02,50,6.50
2015,02,20,02,51,6.60
2015,02,20,02,52,6.70
2015,02,20,02,53,6.70
2015,02,20,02,54,6.80
2015,02,20,02,55,6.90
2015,02,20,02,56,6.90
2015,02,20,02,57,7.00
2015,02,20,02,58,7.10
2015,02,20,02,59,7.10
2015,02,20,03,00,7.10
2015,02,20,03,01,7.20
2015,02,20,03,02,7.20
2015,02,20,03,03,7.20
2015,02,20,03,04,7.20
2015,02,20,03,05,7.30
2015,02,20,03,06,7.30
2015,02,20,03,07,7.30
2015,02,20,03,08,7.30
2015,02,20,03,09,7.40
2015,02,20,03,10,7.40
2015,02,20,03,11,7.50
2015,02,20,03,12,7.50
2015,02,20,03,13,7.50
2015,02,20,03,14,7.60
2015,02,20,03,15,7.60
2015,02,20,03,16,7.70
2015,02,20,03,17,7.70
2015,02,20,03,18,7.80
2015,02,20,03,19,7.80
2015,02,20,03,20,7.80
2015,02,20,03,21,7.90
2015,02,20,03,22,7.90
2015,02,20,03,23,7.90
2015,02,20,03,24,8.00
2015,02,20,03,25,8.00
2015,02,20,03,26,8.10
2015,02,20,03,27,8.10
2015,02,20,03,28,8.20
2015,02,20,03,29,8.20
2015,02,20,03,30,8.20
2015,02,20,03,31,8.30
2015,02,20,03,32,8.30
2015,02,20,03,33,8.30
2015,02,20,03,34,8.40
2015,02,20,03,35,8.40
2015,02,20,03,36,8.40
2015,02,20,03,37,8.40
2015,02,20,03,38,8.50
2015,02,20,03,39,8.50
2015,02,20,03,40,8.50
2015,02,20,03,41,8.60
2015,02,20,03,42,8.60
2015,02,20,03,43,8.60
2015,02,20,03,44,8.60
2015,02,20,03,45,8.70
2015,02,20,03,46,8.70
2015,02,20,03,47,8.70
2015,02,20,03,48,8.70
2015,02,20,03,49,8.80
2015,02,20,03,50,8.80
2015,02,20,03,51,8.90
2015,02,20,03,52,8.90
2015,02,20,03,53,8.90
2015,02,20,03,54,8.90
2015,02,20,03,55,8.90
2015,02,20,03,56,8.90
2015,02,20,03,57,8.90
2015,02,20,03,58,8.90
2015,02,20,03,59,8.90
2015,02,20,04,00,8.90
2015,02,20,04,01,8.90
2015,02,20,04,02,8.90
2015,02,20,04,03,8.90
2015,02,20,04,04,8.90
2015,02,20,04,05,8.90
2015,02,20,04,06,8.90
2015,02,20,04,07,8.90
2015,02,20,04,08,8.90
2015,02,20,04,09,8.90
2015,02,20,04,10,8.80
2015,02,20,04,11,8.80
2015,02,20,04,12,8.80
2015,02,20,04,13,8.80
2015,02,20,04,14,8.80
2015,02,20,04,15,8.80
2015,02,20,04,16,8.80
2015,02,20,04,17,8.80
2015,02,20,04,18,8.80
2015,02,20,04,19,8.80
2015,02,20,04,20,8.70
2015,02,20,04,21,8.70
2015,02,20,04,22,8.70
2015,02,20,04,23,8.70
2015,02,20,04,24,8.70
2015,02,20,04,25,8.70
2015,02,20,04,26,8.70
2015,02,20,04,27,8.70
2015,02,20,04,28,8.70
2015,02,20,04,29,8.70
2015,02,20,04,30,8.70
2015,02,20,04,31,8.70
2015,02,20,04,32,8.70
2015,02,20,04,33,8.70
2015,02,20,04,34,8.70
2015,02,20,04,35,8.70
2015,02,20,04,36,8.70
2015,02,20,04,37,8.70
2015,02,20,04,38,8.70
2015,02,20,04,39,8.70
2015,02,20,04,40,8.70
2015,02,20,04,41,8.70
2015,02,20,04,42,8.70
2015,02,20,04,43,8.70
2015,02,20,04,44,8.70
2015,02,20,04,45,8.70
2015,02,20,04,46,8.70
2015,02,20,04,47,8.70
2015,02,20,04,48,8.70
2015,02,20,04,49,8.70
2015,02,20,04,50,8.70
2015,02,20,04,51,8.70
2015,02,20,04,52,8.70
2015,02,20,04,53,8.70
2015,02,20,04,54,8.70
2015,02,20,04,55,8.60
2015,02,20,04,56,8.60
2015,02,20,04,57,8.60
2015,02,20,04,58,8.60
2015,02,20,04,59,8.60
2015,02,20,05,00,8.60
2015,02,20,05,01,8.60
2015,02,20,05,02,8.60
2015,02,20,05,03,8.60
2015,02,20,05,04,8.60
2015,02,20,05,05,8.50
2015,02,20,05,06,8.50
2015,02,20,05,07,8.50
2015,02,20,05,08,8.50
2015,02,20,05,09,8.50
2015,02,20,05,10,8.50
2015,02,20,05,11,8.50
2015,02,20,05,12,8.50
2015,02,20,05,13,8.50
2015,02,20,05,14,8.50
2015,02,20,05,15,8.50
2015,02,20,05,16,8.50
2015,02,20,05,17,8.50
2015,02,20,05,18,8.50
2015,02,20,05,19,8.50
2015,02,20,05,20,8.50
2015,02,20,05,21,8.50
2015,02,20,05,22,8.50
2015,02,20,05,23,8.50
2015,02,20,05,24,8.50
2015,02,20,05,25,8.50
2015,02,20,05,26,8.50
2015,02,20,05,27,8.50
2015,02,20,05,28,8.50
2015,02,20,05,29,8.50
2015,02,20,05,30,8.50
2015,02,20,05,31,8.50
2015,02,20,05,32,8.50
2015,02,20,05,33,8.50
2015,02,20,05,34,8.60
2015,02,20,05,35,8.60
2015,02,20,05,36,8.60
2015,02,20,05,37,8.60
2015,02,20,05,38,8.60
2015,02,20,05,39,8.60
2015,02,20,05,40,8.60
2015,02,20,05,41,8.60
2015,02,20,05,42,8.60
2015,02,20,05,43,8.60
2015,02,20,05,44,8.60
2015,02,20,05,45,8.60
2015,02,20,05,46,8.60
2015,02,20,05,47,8.60
2015,02,20,05,48,8.60
2015,02,20,05,49,8.60
2015,02,20,05,50,8.60
2015,02,20,05,51,8.60
2015,02,20,05,52,8.50
2015,02,20,05,53,8.50
2015,02,20,05,54,8.50
2015,02,20,05,55,8.50
2015,02,20,05,56,8.50
2015,02,20,05,57,8.50
2015,02,20,05,58,8.50
2015,02,20,05,59,8.50
2015,02,20,06,00,8.40
2015,02,20,06,01,8.40
2015,02,20,06,02,8.40
2015,02,20,06,03,8.40
2015,02,20,06,04,8.40
2015,02,20,06,05,8.40
2015,02,20,06,06,8.40
2015,02,20,06,07,8.40
2015,02,20,06,08,8.40
2015,02,20,06,09,8.40
2015,02,20,06,10,8.40
2015,02,20,06,11,8.40
2015,02,20,06,12,8.40
2015,02,20,06,13,8.40
2015,02,20,06,14,8.40
2015,02,20,06,15,8.30
2015,02,20,06,16,8.30
2015,02,20,06,17,8.30
2015,02,20,06,18,8.30
2015,02,20,06,19,8.30
2015,02,20,06,20,8.30
2015,02,20,06,21,8.30
2015,02,20,06,22,8.30
2015,02,20,06,23,8.30
2015,02,20,06,24,8.30
2015,02,20,06,25,8.20
2015,02,20,06,26,8.20
2015,02,20,06,27,8.20
2015,02,20,06,28,8.20
2015,02,20,06,29,8.20
2015,02,20,06,30,8.30
2015,02,20,06,31,8.30
2015,02,20,06,32,8.30
2015,02,20,06,33,8.30
2015,02,20,06,34,8.30
2015,02,20,06,35,8.30
2015,02,20,06,36,8.30
2015,02,20,06,37,8.30
2015,02,20,06,38,8.30
2015,02,20,06,39,8.30
2015,02,20,06,40,8.30
2015,02,20,06,41,8.30
2015,02,20,06,42,8.30
2015,02,20,06,43,8.30
2015,02,20,06,44,8.30
2015,02,20,06,45,8.30
2015,02,20,06,46,8.30
2015,02,20,06,47,8.30
2015,02,20,06,48,8.30
2015,02,20,06,49,8.30
2015,02,20,06,50,8.30
2015,02,20,06,51,8.30
2015,02,20,06,52,8.30
2015,02,20,06,53,8.30
2015,02,20,06,54,8.30
2015,02,20,06,55,8.30
2015,02,20,06,56,8.30
2015,02,20,06,57,8.30
2015,02,20,06,58,8.30
2015,02,20,06,59,8.30
2015,02,20,07,00,8.30
2015,02,20,07,01,8.30
2015,02,20,07,02,8.30
2015,02,20,07,03,8.30
2015,02,20,07,04,8.30
2015,02,20,07,05,8.30
2015,02,20,07,06,8.30
2015,02,20,07,07,8.30
2015,02,20,07,08,8.30
2015,02,20,07,09,8.30
2015,02,20,07,10,8.30
2015,02,20,07,11,8.30
2015,02,20,07,12,8.30
2015,02,20,07,13,8.30
2015,02,20,07,14,8.30
2015,02,20,07,15,8.30
2015,02,20,07,16,8.30
2015,02,20,07,17,8.30
2015,02,20,07,18,8.30
2015,02,20,07,19,8.30
2015,02,20,07,20,8.20
2015,02,20,07,21,8.20
2015,02,20,07,22,8.20
2015,02,20,07,23,8.20
2015,02,20,07,24,8.20
2015,02,20,07,25,8.20
2015,02,20,07,26,8.20
2015,02,20,07,27,8.20
2015,02,20,07,28,8.20
2015,02,20,07,29,8.10
2015,02,20,07,30,8.10
2015,02,20,07,31,8.10
2015,02,20,07,32,8.10
2015,02,20,07,33,8.10
2015,02,20,07,34,8.00
2015,02,20,07,35,8.00
2015,02,20,07,36,8.00
2015,02,20,07,37,8.00
2015,02,20,07,38,7.90
2015,02,20,07,39,7.90
2015,02,20,07,40,7.90
2015,02,20,07,41,7.90
2015,02,20,07,42,7.90
2015,02,20,07,43,7.90
2015,02,20,07,44,7.90
2015,02,20,07,45,7.80
2015,02,20,07,46,7.80
2015,02,20,07,47,7.80
2015,02,20,07,48,7.80
2015,02,20,07,49,7.80
2015,02,20,07,50,7.80
2015,02,20,07,51,7.80
2015,02,20,07,52,7.80
2015,02,20,07,53,7.80
2015,02,20,07,54,7.80
2015,02,20,07,55,7.80
2015,02,20,07,56,7.80
2015,02,20,07,57,7.80
2015,02,20,07,58,7.80
2015,02,20,07,59,7.80
2015,02,20,08,00,7.80
2015,02,20,08,01,7.80
2015,02,20,08,02,7.80
2015,02,20,08,03,7.80
2015,02,20,08,04,7.80
2015,02,20,08,05,7.80
2015,02,20,08,06,7.80
2015,02,20,08,07,7.90
2015,02,20,08,08,7.90
2015,02,20,08,09,7.90
2015,02,20,08,10,7.90
2015,02,20,08,11,8.00
2015,02,20,08,12,8.00
2015,02,20,08,13,8.00
2015,02,20,08,14,8.10
2015,02,20,08,15,8.10
2015,02,20,08,16,8.10
2015,02,20,08,17,8.10
2015,02,20,08,18,8.20
2015,02,20,08,19,8.20
2015,02,20,08,20,8.30
2015,02,20,08,21,8.30
2015,02,20,08,22,8.30
2015,02,20,08,23,8.30
2015,02,20,08,24,8.40
2015,02,20,08,25,8.40
2015,02,20,08,26,8.40
2015,02,20,08,27,8.40
2015,02,20,08,28,8.40
2015,02,20,08,29,8.40
2015,02,20,08,30,8.50
2015,02,20,08,31,8.50
2015,02,20,08,32,8.50
2015,02,20,08,33,8.60
2015,02,20,08,34,8.60
2015,02,20,08,35,8.60
2015,02,20,08,36,8.60
2015,02,20,08,37,8.60
2015,02,20,08,38,8.60
2015,02,20,08,39,8.70
2015,02,20,08,40,8.70
2015,02,20,08,41,8.70
2015,02,20,08,42,8.70
2015,02,20,08,43,8.70
2015,02,20,08,44,8.70
2015,02,20,08,45,8.70
2015,02,20,08,46,8.80
2015,02,20,08,47,8.80
2015,02,20,08,48,8.80
2015,02,20,08,49,8.80
2015,02,20,08,50,8.80
2015,02,20,08,51,8.80
2015,02,20,08,52,8.80
2015,02,20,08,53,8.90
2015,02,20,08,54,8.90
2015,02,20,08,55,8.90
2015,02,20,08,56,8.90
2015,02,20,08,57,8.90
2015,02,20,08,58,9.00
2015,02,20,08,59,9.00
2015,02,20,09,00,9.00
2015,02,20,09,01,9.10
2015,02,20,09,02,9.10
2015,02,20,09,03,9.10
2015,02,20,09,04,9.10
2015,02,20,09,05,9.10
2015,02,20,09,06,9.10
2015,02,20,09,07,9.20
2015,02,20,09,08,9.20
2015,02,20,09,09,9.20
2015,02,20,09,10,9.20
2015,02,20,09,11,9.20
2015,02,20,09,12,9.20
2015,02,20,09,13,9.20
2015,02,20,09,14,9.20
2015,02,20,09,15,9.20
2015,02,20,09,16,9.30
2015,02,20,09,17,9.30
2015,02,20,09,18,9.30
2015,02,20,09,19,9.30
2015,02,20,09,20,9.30
2015,02,20,09,21,9.30
2015,02,20,09,22,9.30
2015,02,20,09,23,9.30
2015,02,20,09,24,9.30
2015,02,20,09,25,9.30
2015,02,20,09,26,9.30
2015,02,20,09,27,9.40
2015,02,20,09,28,9.40
2015,02,20,09,29,9.40
2015,02,20,09,30,9.40
2015,02,20,09,31,9.40
2015,02,20,09,32,9.40
2015,02,20,09,33,9.40
2015,02,20,09,34,9.40
2015,02,20,09,35,9.40
2015,02,20,09,36,9.30
2015,02,20,09,37,9.30
2015,02,20,09,38,9.30
2015,02,20,09,39,9.30
2015,02,20,09,40,9.30
2015,02,20,09,41,9.40
2015,02,20,09,42,9.40
2015,02,20,09,43,9.40
2015,02,20,09,44,9.40
2015,02,20,09,45,9.40
2015,02,20,09,46,9.40
2015,02,20,09,47,9.40
2015,02,20,09,48,9.40
2015,02,20,09,49,9.40
2015,02,20,09,50,9.40
2015,02,20,09,51,9.40
2015,02,20,09,52,9.50
2015,02,20,09,53,9.50
2015,02,20,09,54,9.50
2015,02,20,09,55,9.50
2015,02,20,09,56,9.50
2015,02,20,09,57,9.60
2015,02,20,09,58,9.60
2015,02,20,09,59,9.60
2015,02,20,10,00,9.60
2015,02,20,10,01,9.60
2015,02,20,10,02,9.60
2015,02,20,10,03,9.60
2015,02,20,10,04,9.60
2015,02,20,10,05,9.60
2015,02,20,10,06,9.60
2015,02,20,10,07,9.60
2015,02,20,10,08,9.70
2015,02,20,10,09,9.70
2015,02,20,10,10,9.70
2015,02,20,10,11,9.70
2015,02,20,10,12,9.80
2015,02,20,10,13,9.80
2015,02,20,10,14,9.80
2015,02,20,10,15,9.80
2015,02,20,10,16,9.80
2015,02,20,10,17,9.80
2015,02,20,10,18,9.80
2015,02,20,10,19,9.80
2015,02,20,10,20,9.80
2015,02,20,10,21,9.80
2015,02,20,10,22,9.80
2015,02,20,10,23,9.80
2015,02,20,10,24,9.80
2015,02,20,10,25,9.80
2015,02,20,10,26,9.80
2015,02,20,10,27,9.80
2015,02,20,10,28,9.90
2015,02,20,10,29,9.90
2015,02,20,10,30,9.90
2015,02,20,10,31,9.90
2015,02,20,10,32,9.90
2015,02,20,10,33,10.00
2015,02,20,10,34,10.00
2015,02,20,10,35,10.10
2015,02,20,10,36,10.10
2015,02,20,10,37,10.10
2015,02,20,10,38,10.10
2015,02,20,10,39,10.20
2015,02,20,10,40,10.20
2015,02,20,10,41,10.20
2015,02,20,10,42,10.20
2015,02,20,10,43,10.20
2015,02,20,10,44,10.20
2015,02,20,10,45,10.20
2015,02,20,10,46,10.10
2015,02,20,10,47,10.10
2015,02,20,10,48,10.10
2015,02,20,10,49,10.10
2015,02,20,10,50,10.10
2015,02,20,10,51,10.10
2015,02,20,10,52,10.10
2015,02,20,10,53,10.10
2015,02,20,10,54,10.10
2015,02,20,10,55,10.10
2015,02,20,10,56,10.10
2015,02,20,10,57,10.10
2015,02,20,10,58,10.10
2015,02,20,10,59,10.10
2015,02,20,11,00,10.10
2015,02,20,11,01,10.10
2015,02,20,11,02,10.10
2015,02,20,11,03,10.00
2015,02,20,11,04,10.00
2015,02,20,11,05,10.00
2015,02,20,11,06,10.00
2015,02,20,11,07,10.00
2015,02,20,11,08,10.00
2015,02,20,11,09,10.00
2015,02,20,11,10,10.00
2015,02,20,11,11,10.10
2015,02,20,11,12,10.10
2015,02,20,11,13,10.10
2015,02,20,11,14,10.10
2015,02,20,11,15,10.10
2015,02,20,11,16,10.10
2015,02,20,11,17,10.10
2015,02,20,11,18,10.10
2015,02,20,11,19,10.10
2015,02,20,11,20,10.10
2015,02,20,11,21,10.10
2015,02,20,11,22,10.10
2015,02,20,11,23,10.10
2015,02,20,11,24,10.10
2015,02,20,11,25,10.20
2015,02,20,11,26,10.20
2015,02,20,11,27,10.30
2015,02,20,11,28,10.30
2015,02,20,11,29,10.30
2015,02,20,11,30,10.30
2015,02,20,11,31,10.30
2015,02,20,11,32,10.30
2015,02,20,11,33,10.30
2015,02,20,11,34,10.30
2015,02,20,11,35,10.30
2015,02,20,11,36,10.30
2015,02,20,11,37,10.30
2015,02,20,11,38,10.30
2015,02,20,11,39,10.30
2015,02,20,11,40,10.20
2015,02,20,11,41,10.20
2015,02,20,11,42,10.20
2015,02,20,11,43,10.20
2015,02,20,11,44,10.20
2015,02,20,11,45,10.20
2015,02,20,11,46,10.20
2015,02,20,11,47,10.20
2015,02,20,11,48,10.20
2015,02,20,11,49,10.20
2015,02,20,11,50,10.20
2015,02,20,11,51,10.20
2015,02,20,11,52,10.20
2015,02,20,11,53,10.20
2015,02,20,11,54,10.30
2015,02,20,11,55,10.30
2015,02,20,11,56,10.30
2015,02,20,11,57,10.40
2015,02,20,11,58,10.40
2015,02,20,11,59,10.40
2015,02,20,12,00,10.40
2015,02,20,12,01,10.40
2015,02,20,12,02,10.40
2015,02,20,12,03,10.40
2015,02,20,12,04,10.40
2015,02,20,12,05,10.40
2015,02,20,12,06,10.50
2015,02,20,12,07,10.50
2015,02,20,12,08,10.50
2015,02,20,12,09,10.50
2015,02,20,12,10,10.40
2015,02,20,12,11,10.40
2015,02,20,12,12,10.40
2015,02,20,12,13,10.40
2015,02,20,12,14,10.50
2015,02,20,12,15,10.50
2015,02,20,12,16,10.50
2015,02,20,12,17,10.50
2015,02,20,12,18,10.50
2015,02,20,12,19,10.40
2015,02,20,12,20,10.50
2015,02,20,12,21,10.50
2015,02,20,12,22,10.50
2015,02,20,12,23,10.50
2015,02,20,12,24,10.60
2015,02,20,12,25,10.60
2015,02,20,12,26,10.60
2015,02,20,12,27,10.60
2015,02,20,12,28,10.60
2015,02,20,12,29,10.50
2015,02,20,12,30,10.50
2015,02,20,12,31,10.40
2015,02,20,12,32,10.50
2015,02,20,12,33,10.50
2015,02,20,12,34,10.50
2015,02,20,12,35,10.50
2015,02,20,12,36,10.60
2015,02,20,12,37,10.60
2015,02,20,12,38,10.60
2015,02,20,12,39,10.70
2015,02,20,12,40,10.60
2015,02,20,12,41,10.60
2015,02,20,12,42,10.60
2015,02,20,12,43,10.60
2015,02,20,12,44,10.50
2015,02,20,12,45,10.50
2015,02,20,12,46,10.50
2015,02,20,12,47,10.50
2015,02,20,12,48,10.50
2015,02,20,12,49,10.50
2015,02,20,12,50,10.50
2015,02,20,12,51,10.50
2015,02,20,12,52,10.50
2015,02,20,12,53,10.50
2015,02,20,12,54,10.50
2015,02,20,12,55,10.50
2015,02,20,12,56,10.40
2015,02,20,12,57,10.50
2015,02,20,12,58,10.50
2015,02,20,12,59,10.50
2015,02,20,13,00,10.60
2015,02,20,13,01,10.60
2015,02,20,13,02,10.70
2015,02,20,13,03,10.70
2015,02,20,13,04,10.70
2015,02,20,13,05,10.70
2015,02,20,13,06,10.70
2015,02,20,13,07,10.70
2015,02,20,13,08,10.70
2015,02,20,13,09,10.80
2015,02,20,13,10,10.80
2015,02,20,13,11,10.70
2015,02,20,13,12,10.70
2015,02,20,13,13,10.80
2015,02,20,13,14,10.80
2015,02,20,13,15,10.80
2015,02,20,13,16,10.80
2015,02,20,13,17,10.80
2015,02,20,13,18,10.80
2015,02,20,13,19,10.80
2015,02,20,13,20,10.70
2015,02,20,13,21,10.70
2015,02,20,13,22,10.70
2015,02,20,13,23,10.70
2015,02,20,13,24,10.70
2015,02,20,13,25,10.70
2015,02,20,13,26,10.60
2015,02,20,13,27,10.60
2015,02,20,13,28,10.70
2015,02,20,13,29,10.70
2015,02,20,13,30,10.70
2015,02,20,13,31,10.80
2015,02,20,13,32,10.80
2015,02,20,13,33,10.80
2015,02,20,13,34,10.80
2015,02,20,13,35,10.80
2015,02,20,13,36,10.80
2015,02,20,13,37,10.80
2015,02,20,13,38,10.90
2015,02,20,13,39,10.90
2015,02,20,13,40,11.00
2015,02,20,13,41,11.00
2015,02,20,13,42,11.10
2015,02,20,13,43,11.10
2015,02,20,13,44,11.10
2015,02,20,13,45,11.00
2015,02,20,13,46,11.00
2015,02,20,13,47,11.00
2015,02,20,13,48,10.90
2015,02,20,13,49,10.90
2015,02,20,13,50,11.00
2015,02,20,13,51,11.00
2015,02,20,13,52,11.00
2015,02,20,13,53,11.00
2015,02,20,13,54,11.00
2015,02,20,13,55,11.10
2015,02,20,13,56,11.10
2015,02,20,13,57,11.10
2015,02,20,13,58,11.10
2015,02,20,13,59,11.10
2015,02,20,14,00,11.10
2015,02,20,14,01,11.10
2015,02,20,14,02,11.10
2015,02,20,14,03,11.10
2015,02,20,14,04,11.10
2015,02,20,14,05,11.20
2015,02,20,14,06,11.20
2015,02,20,14,07,11.20
2015,02,20,14,08,11.20
2015,02,20,14,09,11.20
2015,02,20,14,10,11.30
2015,02,20,14,11,11.30
2015,02,20,14,12,11.30
2015,02,20,14,13,11.30
2015,02,20,14,14,11.30
2015,02,20,14,15,11.30
2015,02,20,14,16,11.30
2015,02,20,14,17,11.30
2015,02,20,14,18,11.20
2015,02,20,14,19,11.20
2015,02,20,14,20,11.20
2015,02,20,14,21,11.20
2015,02,20,14,22,11.20
2015,02,20,14,23,11.20
2015,02,20,14,24,11.30
2015,02,20,14,25,11.30
2015,02,20,14,26,11.30
2015,02,20,14,27,11.30
2015,02,20,14,28,11.30
2015,02,20,14,29,11.30
2015,02,20,14,30,11.30
2015,02,20,14,31,11.30
2015,02,20,14,32,11.30
2015,02,20,14,33,11.30
2015,02,20,14,34,11.30
2015,02,20,14,35,11.30
2015,02,20,14,36,11.20
2015,02,20,14,37,11.20
2015,02,20,14,38,11.30
2015,02,20,14,39,11.30
2015,02,20,14,40,11.30
2015,02,20,14,41,11.30
2015,02,20,14,42,11.30
2015,02,20,14,43,11.30
2015,02,20,14,44,11.30
2015,02,20,14,45,11.30
2015,02,20,14,46,11.30
2015,02,20,14,47,11.30
2015,02,20,14,48,11.30
2015,02,20,14,49,11.30
2015,02,20,14,50,11.30
2015,02,20,14,51,11.30
2015,02,20,14,52,11.30
2015,02,20,14,53,11.30
2015,02,20,14,54,11.30
2015,02,20,14,55,11.30
2015,02,20,14,56,11.30
2015,02,20,14,57,11.30
2015,02,20,14,58,11.30
2015,02,20,14,59,11.30
2015,02,20,15,00,11.30
2015,02,20,15,01,11.30
2015,02,20,15,02,11.30
2015,02,20,15,03,11.30
2015,02,20,15,04,11.30
2015,02,20,15,05,11.30
2015,02,20,15,06,11.30
2015,02,20,15,07,11.20
2015,02,20,15,08,11.20
2015,02,20,15,09,11.20
2015,02,20,15,10,11.20
2015,02,20,15,11,11.20
2015,02,20,15,12,11.20
2015,02,20,15,13,11.20
2015,02,20,15,14,11.20
2015,02,20,15,15,11.20
2015,02,20,15,16,11.20
2015,02,20,15,17,11.20
2015,02,20,15,18,11.20
2015,02,20,15,19,11.20
2015,02,20,15,20,11.20
2015,02,20,15,21,11.20
2015,02,20,15,22,11.10
2015,02,20,15,23,11.10
2015,02,20,15,24,11.10
2015,02,20,15,25,11.10
2015,02,20,15,26,11.00
2015,02,20,15,27,11.00
2015,02,20,15,28,10.90
2015,02,20,15,29,10.90
2015,02,20,15,30,10.80
2015,02,20,15,31,10.80
2015,02,20,15,32,10.80
2015,02,20,15,33,10.80
2015,02,20,15,34,10.70
2015,02,20,15,35,10.70
2015,02,20,15,36,10.60
2015,02,20,15,37,10.60
2015,02,20,15,38,10.50
2015,02,20,15,39,10.50
2015,02,20,15,40,10.40
2015,02,20,15,41,10.40
2015,02,20,15,42,10.40
2015,02,20,15,43,10.40
2015,02,20,15,44,10.30
2015,02,20,15,45,10.30
2015,02,20,15,46,10.30
2015,02,20,15,47,10.30
2015,02,20,15,48,10.30
2015,02,20,15,49,10.30
2015,02,20,15,50,10.20
2015,02,20,15,51,10.20
2015,02,20,15,52,10.20
2015,02,20,15,53,10.10
2015,02,20,15,54,10.10
2015,02,20,15,55,10.10
2015,02,20,15,56,10.10
2015,02,20,15,57,10.10
2015,02,20,15,58,10.00
2015,02,20,15,59,10.00
2015,02,20,16,00,10.00
2015,02,20,16,01,10.00
2015,02,20,16,02,10.00
2015,02,20,16,03,10.00
2015,02,20,16,04,9.90
2015,02,20,16,05,9.90
2015,02,20,16,06,9.90
2015,02,20,16,07,9.90
2015,02,20,16,08,9.80
2015,02,20,16,09,9.80
2015,02,20,16,10,9.80
2015,02,20,16,11,9.80
2015,02,20,16,12,9.80
2015,02,20,16,13,9.80
2015,02,20,16,14,9.80
2015,02,20,16,15,9.80
2015,02,20,16,16,9.80
2015,02,20,16,17,9.80
2015,02,20,16,18,9.80
2015,02,20,16,19,9.80
2015,02,20,16,20,9.70
2015,02,20,16,21,9.70
2015,02,20,16,22,9.70
2015,02,20,16,23,9.70
2015,02,20,16,24,9.70
2015,02,20,16,25,9.70
2015,02,20,16,26,9.60
2015,02,20,16,27,9.60
2015,02,20,16,28,9.60
2015,02,20,16,29,9.60
2015,02,20,16,30,9.60
2015,02,20,16,31,9.60
2015,02,20,16,32,9.60
2015,02,20,16,33,9.60
2015,02,20,16,34,9.60
2015,02,20,16,35,9.60
2015,02,20,16,36,9.60
2015,02,20,16,37,9.60
2015,02,20,16,38,9.60
2015,02,20,16,39,9.50
2015,02,20,16,40,9.50
2015,02,20,16,41,9.40
2015,02,20,16,42,9.40
2015,02,20,16,43,9.40
2015,02,20,16,44,9.30
2015,02,20,16,45,9.30
2015,02,20,16,46,9.30
2015,02,20,16,47,9.30
2015,02,20,16,48,9.30
2015,02,20,16,49,9.30
2015,02,20,16,50,9.20
2015,02,20,16,51,9.20
2015,02,20,16,52,9.20
2015,02,20,16,53,9.20
2015,02,20,16,54,9.20
2015,02,20,16,55,9.10
2015,02,20,16,56,9.10
2015,02,20,16,57,9.10
2015,02,20,16,58,9.00
2015,02,20,16,59,9.00
2015,02,20,17,00,9.00
2015,02,20,17,01,8.90
2015,02,20,17,02,8.90
2015,02,20,17,03,8.90
2015,02,20,17,04,8.90
2015,02,20,17,05,8.80
2015,02,20,17,06,8.80
2015,02,20,17,07,8.80
2015,02,20,17,08,8.80
2015,02,20,17,09,8.80
2015,02,20,17,10,8.80
2015,02,20,17,11,8.70
2015,02,20,17,12,8.70
2015,02,20,17,13,8.70
2015,02,20,17,14,8.70
2015,02,20,17,15,8.70
2015,02,20,17,16,8.70
2015,02,20,17,17,8.60
2015,02,20,17,18,8.60
2015,02,20,17,19,8.60
2015,02,20,17,20,8.60
2015,02,20,17,21,8.50
2015,02,20,17,22,8.50
2015,02,20,17,23,8.50
2015,02,20,17,24,8.40
2015,02,20,17,25,8.40
2015,02,20,17,26,8.40
2015,02,20,17,27,8.30
2015,02,20,17,28,8.30
2015,02,20,17,29,8.30
2015,02,20,17,30,8.30
2015,02,20,17,31,8.20
2015,02,20,17,32,8.20
2015,02,20,17,33,8.20
2015,02,20,17,34,8.20
2015,02,20,17,35,8.10
2015,02,20,17,36,8.10
2015,02,20,17,37,8.10
2015,02,20,17,38,8.10
2015,02,20,17,39,8.10
2015,02,20,17,40,8.00
2015,02,20,17,41,8.00
2015,02,20,17,42,8.00
2015,02,20,17,43,7.90
2015,02,20,17,44,7.90
2015,02,20,17,45,7.90
2015,02,20,17,46,7.90
2015,02,20,17,47,7.90
2015,02,20,17,48,7.80
2015,02,20,17,49,7.80
2015,02,20,17,50,7.80
2015,02,20,17,51,7.80